CW0811 Weather Reports


time (UTC)temp
C
wind
direction
speed
KPH
gust
KPH
rain 1hr
cm
rain 24hr
cm
rain mn
cm
humidity
%
barometer
mb
20260510213041 15 0 0.0 3.2 0.10 0.97 0.15 86 1012.1
20260510211540 16 0 0.0 1.6 0.15 0.97 0.15 85 1011.9
20260510210042 16 275 0.0 4.8 0.13 0.94 0.13 84 1011.8
20260510204616 17 292 0.0 4.8 0.10 1.27 0.10 79 1012.1
20260510203042 19 0 0.0 4.8 0.03 1.19 0.03 76 1011.6
20260510201540 20 294 0.0 9.7 0.00 1.17 0.00 75 1011.3
20260510200107 20 215 3.2 14.5 0.00 1.17 0.00 71 1011.1
20260510194554 20 198 3.2 14.5 0.00 1.52 0.00 70 1011.3
20260510193056 20 0 3.2 16.1 0.00 1.52 0.00 70 1011.3
20260510191552 20 187 4.8 19.3 0.00 1.52 0.00 70 1011.2
20260510190043 21 237 3.2 8.0 0.00 1.52 0.00 67 1011.3
20260510184540 20 177 6.4 16.1 0.00 1.52 0.00 67 1011.4
20260510183054 20 271 4.8 14.5 0.00 1.52 0.00 68 1011.4
20260510181545 21 239 3.2 14.5 0.00 1.52 0.00 65 1011.5
20260510180045 21 190 8.0 16.1 0.00 1.52 0.00 66 1011.5
20260510174544 21 157 4.8 12.9 0.00 1.52 0.00 66 1011.2
20260510173048 20 147 1.6 11.3 0.00 1.52 0.00 70 1011.4
20260510171548 20 0 4.8 12.9 0.00 1.52 0.00 72 1011.6
20260510170050 20 206 6.4 14.5 0.00 1.52 0.00 67 1011.5
20260510164546 19 163 6.4 14.5 0.00 1.52 0.00 70 1011.7
20260510163041 20 146 3.2 14.5 0.00 1.52 0.00 67 1011.8
20260510161540 20 191 4.8 11.3 0.00 1.52 0.00 72 1012.0
20260510160041 19 230 3.2 17.7 0.00 1.52 0.00 72 1011.9
20260510154547 18 199 1.6 14.5 0.00 1.52 0.00 75 1012.1
20260510153045 17 178 4.8 14.5 0.00 1.52 0.00 77 1012.4
20260510151545 17 313 3.2 16.1 0.00 1.52 0.00 77 1012.4
20260510150042 17 169 1.6 11.3 0.00 1.52 0.00 77 1012.4
20260510144540 16 165 3.2 11.3 0.00 1.52 0.00 78 1012.3
20260510143047 16 157 3.2 12.9 0.00 1.52 0.00 80 1012.3
20260510141555 15 106 1.6 8.0 0.00 1.52 0.00 85 1012.3
20260510140044 13 158 0.0 9.7 0.00 1.52 0.00 91 1012.4
20260510134542 13 161 3.2 8.0 0.00 1.52 0.00 91 1012.2
20260510133054 12 189 3.2 8.0 0.00 1.52 0.00 92 1012.2
20260510131540 12 150 0.0 8.0 0.00 1.52 0.00 93 1012.2
20260510130048 12 0 0.0 3.2 0.00 1.52 0.00 94 1012.3
20260510124543 12 155 1.6 4.8 0.00 1.55 0.00 94 1012.2
20260510123056 12 0 0.0 1.6 0.00 1.55 0.00 94 1012.0
20260510121541 12 0 0.0 3.2 0.00 1.55 0.00 95 1011.9
20260510120042 11 0 0.0 3.2 0.00 1.55 0.00 94 1011.9
20260510114552 11 133 0.0 4.8 0.00 1.55 0.00 94 1011.7
20260510113045 11 223 0.0 3.2 0.00 1.55 0.00 94 1011.6
20260510111541 11 223 1.6 4.8 0.00 1.55 0.00 94 1011.6
20260510110042 11 224 1.6 6.4 0.00 1.55 0.00 94 1011.4
20260510104541 11 0 0.0 4.8 0.00 1.57 0.00 94 1011.4
20260510103048 11 0 0.0 9.7 0.00 1.57 0.00 94 1011.4
20260510101544 11 185 1.6 4.8 0.00 1.57 0.00 94 1010.8
20260510100042 11 184 0.0 4.8 0.00 1.57 0.00 94 1011.3
20260510094551 11 177 0.0 3.2 0.00 1.57 0.00 94 1011.2
20260510093041 11 176 1.6 6.4 0.00 1.57 0.00 94 1011.2
20260510091551 11 186 0.0 3.2 0.00 1.57 0.00 94 1011.1
20260510090045 11 0 0.0 3.2 0.00 1.57 0.00 94 1011.4
20260510084542 11 0 0.0 0.0 0.00 1.63 0.00 94 1011.3
20260510083041 11 0 0.0 3.2 0.00 1.63 0.00 94 1011.2
20260510081552 11 0 0.0 0.0 0.00 1.63 0.00 94 1011.1
20260510080046 11 0 0.0 0.0 0.00 1.63 0.00 94 1011.1
20260510074545 11 0 0.0 0.0 0.00 1.63 0.00 94 1011.0
20260510073101 11 186 0.0 1.6 0.00 1.63 0.00 94 1011.0
20260510071548 11 0 0.0 4.8 0.00 1.63 0.00 94 1011.1
20260510070044 11 0 0.0 1.6 0.00 1.63 0.00 94 1011.0
20260510064554 11 0 0.0 1.6 0.00 1.63 0.00 94 1011.0
20260510063045 11 0 0.0 6.4 0.00 1.63 0.00 94 1010.9
20260510061546 11 163 0.0 1.6 0.00 1.63 0.00 94 1010.4
20260510060045 11 0 0.0 3.2 0.00 1.63 0.00 94 1010.5
20260510054542 11 163 0.0 6.4 0.00 1.63 0.00 94 1010.8
20260510053041 11 159 1.6 4.8 0.00 1.63 0.00 94 1010.9
20260510051544 11 0 0.0 4.8 0.00 1.63 0.00 94 1010.6
20260510050051 11 0 0.0 0.0 0.00 1.63 0.00 93 1010.8
20260510044550 11 0 0.0 0.0 0.00 1.63 0.00 93 1010.7
20260510043048 11 0 0.0 0.0 0.00 1.63 0.00 94 1010.8
20260510041543 11 0 0.0 0.0 0.00 1.63 0.00 94 1010.7
20260510040049 11 0 0.0 0.0 0.00 1.63 0.00 94 1010.5
20260510034542 11 0 0.0 8.0 0.00 1.63 1.63 94 1010.8
20260510033043 11 0 0.0 1.6 0.00 1.63 1.63 93 1010.6
20260510031553 11 0 0.0 1.6 0.00 1.63 1.63 93 1010.5
20260510030047 11 0 0.0 0.0 0.00 1.63 1.63 93 1010.6
20260510024545 11 0 0.0 4.8 0.00 1.63 1.63 93 1010.3
20260510023039 11 173 0.0 3.2 0.00 1.63 1.63 93 1010.4
20260510021545 11 0 0.0 1.6 0.00 1.63 1.63 93 1010.4
20260510020042 11 0 0.0 1.6 0.00 1.63 1.63 93 1010.6
20260510014542 11 0 1.6 6.4 0.03 1.63 1.63 93 1010.7
20260510013041 11 147 0.0 6.4 0.05 1.63 1.63 93 1010.7
20260510011540 12 187 1.6 8.0 0.08 1.63 1.63 93 1010.3
20260510010048 12 0 0.0 6.4 0.13 1.63 1.63 93 1010.5
20260510004544 12 194 0.0 4.8 0.15 1.60 1.60 93 1010.2
20260510003047 12 185 0.0 6.4 0.18 1.57 1.57 93 1010.0
20260510001552 12 0 1.6 4.8 0.23 1.55 1.55 93 1009.9
20260510000041 12 0 1.6 9.7 0.23 1.47 1.47 93 1009.8
20260509234547 12 125 0.0 6.4 0.23 1.45 1.45 93 1009.8
20260509233052 11 170 0.0 6.4 0.23 1.40 1.40 93 1010.0
20260509231541 11 213 1.6 9.7 0.20 1.32 1.32 93 1010.3
20260509230049 11 0 0.0 4.8 0.20 1.27 1.27 93 1010.5
20260509224550 11 150 1.6 6.4 0.20 1.22 1.22 92 1010.5
20260509223040 11 0 0.0 3.2 0.23 1.17 1.17 92 1010.6